Location: Ostrava
(49.8330°N, 18.2830°E)
Time: 08:32:24
(UTC+02:00)

NOAA 19 - Visible Passes

Search period start: 02 August 2014 00:00
Search period end: 12 August 2014 00:00
Orbit: 843 x 863 km, 98.9° (Epoch: 01 August)

Date Brightness Start Highest point End Pass type
(mag) Time Alt. Az. Time Alt. Az. Time Alt. Az.
02 Aug 7.1 01:55:27 10° NE 01:59:40 22° E 02:03:15 12° SE visible
02 Aug 5.3 03:35:23 10° N 03:40:54 68° WNW 03:45:19 16° SSW visible
03 Aug 7.3 01:44:47 10° NE 01:48:29 18° E 01:52:01 11° SE visible
03 Aug 5.2 03:24:18 10° NNE 03:29:53 81° WNW 03:34:04 18° SSW visible
04 Aug 7.5 01:34:17 10° NE 01:37:16 15° E 01:40:15 10° ESE visible
04 Aug 5.3 03:13:15 10° NNE 03:18:51 84° ESE 03:22:49 20° SSW visible
05 Aug 7.6 01:24:10 10° ENE 01:26:02 12° E 01:27:54 10° ESE visible
05 Aug 5.4 03:02:13 10° NNE 03:07:47 70° ESE 03:11:34 21° S visible
06 Aug 5.6 02:51:13 10° NNE 02:56:43 58° ESE 03:00:19 22° S visible
06 Aug 6.4 04:32:30 10° N 04:37:07 28° WNW 04:41:44 10° WSW visible
07 Aug 5.9 02:40:15 10° NNE 02:45:37 48° E 02:49:04 21° SSE visible
07 Aug 6.2 04:21:18 10° N 04:26:11 33° WNW 04:31:04 10° WSW visible
08 Aug 6.2 02:29:18 10° NNE 02:34:31 39° E 02:37:49 20° SSE visible
08 Aug 6.0 04:10:08 10° N 04:15:14 39° WNW 04:19:52 12° SW visible
09 Aug 6.5 02:18:24 10° NNE 02:23:23 32° E 02:26:33 19° SE visible
09 Aug 5.7 03:58:59 10° N 04:04:16 46° WNW 04:08:37 15° SW visible
10 Aug 6.8 02:07:34 10° NE 02:12:14 27° E 02:15:18 17° SE visible
10 Aug 5.5 03:47:51 10° N 03:53:17 56° WNW 03:57:21 18° SW visible
11 Aug 7.0 01:56:47 10° NE 02:01:04 22° E 02:04:02 15° SE visible
11 Aug 5.3 03:36:45 10° N 03:42:17 67° WNW 03:46:06 21° SSW visible
